Regional Weather Roundup
Issued by NWS Wilmington, NC

Home | Current Version | Previous Version | Text Only | Print | Product List | Glossary On
Versions: 1 2 3 4 5 6 7 8 9 10 11 12 13 14 15 16 17 18 19 20 21 22 23 24 25 26 27 28 29 30 31 32 33 34 35 36 37 38 39 40 41 42 43 44 45 46 47 48 49 50
000
ASUS42 KILM 261312
RWRILM
RWRILM
REGIONAL HOURLY WEATHER ROUNDUP
NATIONAL WEATHER SERVICE WILMINGTON NC
900 AM EDT SUN MAR 26 2017

NOTE: "FAIR" INDICATES FEW OR NO CLOUDS BELOW 12,000 FEET WITH NO
SIGNIFICANT WEATHER AND/OR OBSTRUCTIONS TO VISIBILITY.

...............WFO WILMINGTON COUNTY WARNING AREA...............

......COASTAL NC AND SC COUNTIES......

CITY           SKY/WX    TMP DP  RH WIND       PRES   REMARKS
WILMINGTON     CLOUDY    65  56  72 SE3       30.25R
N MYRTLE BEACH MOSUNNY   67  58  72 SE3       30.22S
MYRTLE BEACH   PTSUNNY   63  59  88 CALM      30.23R

......INLAND NC AND SC COUNTIES.......

CITY           SKY/WX    TMP DP  RH WIND       PRES   REMARKS
LUMBERTON      SUNNY     60  57  89 SE3       30.22S
ELIZABETHTOWN  MOSUNNY   58  58  98 CALM      30.24S
WHITEVILLE     PTSUNNY   60  57  92 CALM      30.23S
FLORENCE       MOSUNNY   61  56  83 SE5       30.22R
DARLINGTON     CLOUDY    60  56  86 SE3       30.22R
KINGSTREE      FAIR      61  54  77 CALM      30.21S
HARTSVILLE     CLOUDY    59  54  82 SE3       30.21R
BENNETTSVILLE  FAIR      63  57  82 SE6       30.22R
CONWAY         FAIR      61  55  82 CALM      30.22S FOG
GEORGETOWN     FAIR      61  59  94 CALM      30.22R
MARION         FAIR      59  55  88 CALM      30.22S

....................REST OF NORTH CAROLINA......................

.........EASTERN NC.........

CITY           SKY/WX    TMP DP  RH WIND       PRES   REMARKS
CAPE HATTERAS  CLOUDY    70  55  59 CALM      30.29R
JACKSONVILLE   CLOUDY    59  57  93 CALM      30.27R
MOREHEAD CITY  CLOUDY    68  58  70 CALM      30.27R
KENANSVILLE    PTSUNNY   59  55  88 SE5       30.26S
NEW BERN       CLOUDY    61  59  93 CALM      30.27S
ELIZABETH CITY CLOUDY    59  57  93 CALM      30.28R

.........CENTRAL NC.........

CITY           SKY/WX    TMP DP  RH WIND       PRES   REMARKS
RALEIGH DURHAM CLOUDY    58  53  84 S3        30.25R
ROCKY MOUNT    CLOUDY    56  56 100 S3        30.26R
ROANOKE RAPIDS NOT AVBL
FAYETTEVILLE   PTSUNNY   59  56  89 SE3       30.23R
HOFFMAN        MOSUNNY   55  54  96 SE6       30.23R

.........WESTERN NC.........

CITY           SKY/WX    TMP DP  RH WIND       PRES   REMARKS
CHARLOTTE      CLOUDY    59  54  83 SE8       30.21R
GREENSBORO     PTSUNNY   57  55  93 S7        30.22R
HICKORY        NOT AVBL
BOONE          NOT AVBL
ASHEVILLE      NOT AVBL

.....................REST OF SOUTH CAROLINA.....................

.........EASTERN SC.........

CITY           SKY/WX    TMP DP  RH WIND       PRES   REMARKS
CHARLESTON     MOSUNNY   66  58  75 SE5       30.20R
BEAUFORT MCAS  MOSUNNY   65  62  90 CALM      30.19R
HILTON HEAD    MOSUNNY   64  61  88 SE6       30.18R

.........CENTRAL SC.........

CITY           SKY/WX    TMP DP  RH WIND       PRES   REMARKS
COLUMBIA       CLOUDY    59  55  87 E3        30.19R
ORANGEBURG     PTSUNNY   60  57  89 CALM      30.20R
SUMTER SHAW    MOSUNNY   59  56  89 CALM      30.19R

.........WESTERN SC.........

CITY           SKY/WX    TMP DP  RH WIND       PRES   REMARKS
GREENVILLE     NOT AVBL
ROCK HILL      CLOUDY    59  55  87 S3        30.20R
ANDERSON       CLOUDY    59  56  89 S6        30.16R
CLEMSON        NOT AVBL
GREENWOOD      CLOUDY    60  54  80 S8        30.18R


...................COASTAL AND OFFSHORE REPORTS..................

................LOCAL PIERS AND NC RESERVE................


STATION/POSITION TIME  SKY/WX   TEMP    WIND        PRES    VSBY
                                AIR SEA DIR/SP/G
                 (UTC)          (F)     (DEG/KT/KT) (MB)    (MI)
JOHNY MRCER PIER 1236            65 56  130/  3/  4 1023.1R
NC RESRV MASNBRO 1145            56      10/  1     1023.0
OCEAN CREST PIER NOT AVBL
SPRINGMAID  PIER 1248                               1022.7R


................COASTAL AND OFFSHORE BUOYS................


STATION/POSITION TIME  SKY/WX   TEMP    WIND        PRES    VSBY
                                AIR SEA DIR/SP/G
                 (UTC)          (F)     (DEG/KT/KT) (MB)    (MI)
DIMNDSHOAL 41025 1250            69 75  180/ 10/ 12 1025.8R
WVE H/P(F/S)=  3/ 8 SWL H/P/D(F/S/D)=  2/180/ 8

CAPE LOOKOUT     1200            66      30/  3/  3 1024.6R
ONSLOW BAY 41036 NOT AVBL
ONSLOW BAY 41064 1208            67     180/  2/  4 1024.7R
ONSLOW BAY 41159 1243               65                N/A
WVE H/P(F/S)=  3/ 8

MASNBO INL 41110 1259               59                N/A
WVE H/P(F/S)=  3/ 5

WILM HARBR 41108 1247               58                N/A
WVE H/P(F/S)=  3/ 6

27SE WRITB 41037 1208            66 64  120/  6/  8 1023.1R
FRYING PAN 41013 1250            70 75  110/ 12/ 16 1023.6R
WVE H/P(F/S)=  4/ 8 SWL H/P/D(F/S/D)=  3/150/ 8

SUNST NRSH 41024 NOT AVBL
CAPRS NRSH 41029 NOT AVBL
EDISTO     41004 1150            71 73  160/ 10/ 14 1022.0
WVE H/P(F/S)=  5/ 9 SWL H/P/D(F/S/D)=  3/130/ 9



..........OFFSHORE BUOYS BEYOND 100 NM OFFSHORE...........
.....IN A TRIANGLE---HAT TO BERMUDA TO BAHAMAS TO HAT.....


STATION/POSITION TIME  SKY/WX   TEMP    WIND        PRES    VSBY
                                AIR SEA DIR/SP/G
                 (UTC)          (F)     (DEG/KT/KT) (MB)    (MI)
150E HAT   41001 NOT AVBL
W BERMUDA  41048 1150            65 68   80/  8/ 10 1025.9
WVE H/P(F/S)=  5/ 8 SWL H/P/D(F/S/D)=  5/120/ 8

ATLANTIC S 41049 1150            70 72   80/ 19/ 25 1021.0
WVE H/P(F/S)= 10/ 8 SWL H/P/D(F/S/D)=  3/310/17

E BAHAMAS  41046 NOT AVBL
NE BAHAMAS 41047 1250            70 72   50/ 21/ 27 1019.5S
WVE H/P(F/S)= 10/ 9

120E CANVRL41010 NOT AVBL

END



USA.gov is the U.S. government's official web portal to all federal, state and local government web resources and services.